Starlink 34156

operational
NORAD ID: 64108 Int'l Des: 2025-110 Owner: SPXS Country: US Constellation: starlink
LEOCIRCULAR

Über Starlink 34156

Beschreibung wird geladen...

Live-Position

3D-Globus wird geladen...

Nächste Überflüge

Höhenverlauf

Altitude vs Time

uPlot chart will show altitude changes over time

Zweizeiliger Elementsatz

1 64108U 25110N 25307.83336806 .00066992 00000-0 16722-2 0 9994
2 64108 53.1602 251.5938 0001275 99.3433 127.8366 15.39581576 5836
Epoch: 3. Nov. 2025 • Age: 7 hours

Aktueller Status

Höhe 448.8 km
Geschwindigkeit 7.64 km/s
Subsatellitenpunkt -3.03°S, 162.52°E
Startdatum 23. Mai 2025
Alter 0.4 years
Typ internet

Technische Details

Klassifizierung Payload
Masse 575.00 kg
Trockenmasse 530.00 kg
Gesamtmasse 575.00 kg
Länge 0.30 m
Durchmesser 4.10 m
Spannweite 29.00 m
Form Box + pan
Hersteller SPXS
Bus-Typ Starlink V2MO
Phasenstatus In Orbit
Besitzer/Staat SPXS/US

Große Konstellationen

Loading constellations...